Location: Frankfurt am Main
(50.1109°N, 8.6821°E)
Time: 22:36:38
(UTC+01:00)

ISS - Pass Details

Date: 26 January 2020
Orbit: 415 x 423 km, 51.6° (Epoch: 25 February)

Event Time Altitude Azimuth Distance (km) Brightness Sun altitude
Rises 18:21:10 0° 243° (WSW) 2,374 1.9 -11.7°
Reaches altitude 10° 18:23:16 10° 240° (WSW) 1,510 0.4 -12.0°
Maximum altitude 18:26:39 66° 158° (SSE) 466 -3.6 -12.5°
Enters shadow 18:28:35 23° 81° (E) 951 -2.6 -12.8°
